SJ-11-06                
1 39624U 14014A   19265.09336701  .00000034  00000-0  17381-4 0  9997
2 39624  98.2812 309.6445 0015615 112.9281 247.3579 14.59005338291905
CZ-2C R/B               
1 39625U 14014B   19264.51394754 -.00000274  00000-0 -12054-4 0  9996
2 39625  98.3413 118.1377 0139655 282.5753  75.9880 15.00170945299553
CZ-2C DEB               
1 39626U 14014C   19264.52017244  .00000400  00000-0  10065-3 0  9992
2 39626  97.9887 243.6337 0104817 156.5191 204.0843 14.52948665290140
CZ-2C DEB               
1 39627U 14014D   19263.72734771  .00000336  00000-0  14125-3 0  9994
2 39627  98.1342 177.7474 0182303  46.5615 315.0571 14.22861816284147
CZ-2C DEB               
1 39628U 14014E   19264.18106370  .00000435  00000-0  10892-3 0  9991
2 39628  98.3165 342.8380 0103519 223.3567 135.9452 14.53375224290160
CZ-2C DEB               
1 39629U 14014F   19264.48486544  .00000243  00000-0  10541-3 0  9997
2 39629  98.3795 256.0907 0178196  86.2372 275.9163 14.24016440284509